Wind_Speed
24 27 28 29 31 32 33 33 34 36 37 36 35 35 34 33 33 33 33 32 31 30 28 25 23 22 18 16 15 15 14 11 12 10 10 9 7 8 10 10 13 12 9 8 6 8 7
18 20 22 25 28 31 34 36 36 37 37 39 41 40 40 39 38 37 36 35 35 34 33 31 28 26 24 20 20 17 17 17 15 12 12 10 10 9 9 10 14 17 17 14 5 13 6
14 17 20 23 25 28 29 31 34 37 39 41 41 43 44 43 42 41 40 39 39 38 37 36 34 32 29 28 23 22 19 21 19 16 14 12 12 11 12 12 12 15 15 12 10 14 7
2 7 14 19 22 24 26 29 31 34 36 38 42 44 45 46 47 46 45 42 42 43 42 41 40 38 34 31 28 23 23 23 21 19 16 14 14 13 13 13 12 13 14 13 7 16 10
6 8 9 8 11 14 19 24 28 31 34 37 40 43 45 46 48 48 49 47 44 45 46 44 44 42 39 34 32 28 26 24 23 21 20 18 16 15 14 15 15 14 15 14 9 18 19
14 15 15 16 17 18 19 18 21 25 28 32 37 42 45 47 48 48 49 48 47 46 48 49 44 44 40 38 37 31 29 26 25 23 22 21 20 18 16 16 14 12 14 15 19 19 15
17 18 19 20 22 23 24 25 28 32 35 36 37 40 43 44 48 50 49 48 48 49 51 49 51 47 46 42 37 36 32 27 25 25 21 21 23 19 17 16 18 19 18 17 23 21 20
17 18 21 24 24 25 26 26 29 34 35 36 41 43 41 44 43 45 48 51 48 51 51 48 49 49 46 42 40 37 36 31 27 24 21 23 22 19 22 26 24 20 17 15 19 19 20
21 24 24 25 26 27 27 28 32 34 36 39 44 49 41 42 45 44 44 45 48 50 51 47 49 50 47 47 41 38 37 35 33 27 23 22 18 20 25 25 25 21 18 16 16 17 16
24 26 27 29 31 32 31 32 33 35 37 38 43 47 43 42 45 42 44 41 43 47 49 47 48 48 48 51 47 41 41 38 37 30 22 21 21 23 26 27 21 20 17 18 17 17 14
25 27 29 31 31 32 33 35 36 38 39 41 42 43 44 42 44 39 39 38 39 40 47 36 40 44 44 50 44 40 39 39 39 32 26 21 23 24 30 24 23 20 15 19 16 16 15
28 30 31 34 34 35 37 38 40 40 41 43 41 43 42 41 42 37 36 35 36 39 45 33 29 39 39 42 43 37 35 39 38 33 29 27 22 25 22 23 25 21 22 20 17 14 16
30 33 36 35 37 38 38 39 41 42 43 43 43 44 39 38 35 34 33 32 35 37 29 31 25 31 34 36 39 41 41 44 40 34 35 30 30 28 24 23 21 21 20 15 12 14 14
32 34 37 39 39 39 41 42 43 42 42 42 44 41 34 34 31 30 31 32 33 29 30 15 21 19 25 24 28 34 40 34 36 36 29 28 29 29 28 28 19 19 19 17 13 11 13
34 36 38 39 39 41 40 42 42 43 42 43 41 35 31 32 29 27 29 31 28 27 16 25 25 25 23 24 25 28 32 36 37 32 35 32 31 23 26 27 26 22 23 18 20 20 18
34 37 38 39 41 40 40 40 45 43 43 41 39 30 30 27 23 22 25 27 29 22 26 36 29 20 18 20 24 28 25 27 29 32 33 31 29 23 26 30 26 27 19 20 21 19 20
38 39 37 40 39 39 40 42 39 41 41 38 34 31 25 26 23 18 18 21 26 28 36 35 28 18 19 22 26 20 22 21 26 25 27 28 27 24 27 28 23 25 28 27 19 20 18
39 41 38 38 38 38 39 39 38 39 40 36 28 29 23 24 23 23 22 21 26 35 36 26 31 33 24 23 19 17 15 20 30 28 27 27 28 24 23 21 19 23 19 24 25 23 22
40 40 39 36 35 36 38 37 37 36 36 31 22 22 20 22 21 22 22 25 31 28 31 30 31 33 35 37 29 30 19 24 32 25 20 23 29 27 27 24 23 24 21 22 20 22 23
39 38 36 33 34 36 38 38 35 34 33 26 21 20 22 20 20 20 23 24 30 28 29 31 32 32 33 38 38 31 20 19 30 24 30 30 24 25 25 22 25 26 23 25 22 22 20
36 34 33 32 33 35 35 35 31 32 30 23 20 18 18 23 20 18 25 28 26 29 30 33 31 32 32 34 36 40 32 12 20 28 28 27 27 23 25 23 19 20 26 23 24 23 23
33 33 32 32 34 32 32 31 28 28 25 17 16 16 15 18 19 18 20 27 28 23 23 27 30 28 27 33 36 35 23 21 18 19 20 26 26 24 25 22 20 20 21 20 23 23 22
33 35 32 31 27 28 29 28 24 24 22 14 13 16 15 15 16 17 17 25 26 25 17 18 22 25 26 26 37 39 24 25 24 22 18 27 23 28 22 20 23 28 23 22 22 22 22
32 29 27 26 25 25 27 26 19 20 18 14 14 15 18 16 13 9 22 22 21 19 21 18 22 23 31 31 32 37 30 29 32 34 34 27 25 27 24 27 29 28 32 25 23 28 37
28 26 22 23 23 24 25 21 19 17 17 18 16 13 20 17 15 16 19 23 22 16 19 20 23 23 23 24 28 33 37 36 35 29 37 34 31 26 29 32 20 18 25 28 26 34 29
26 24 23 23 21 23 24 19 17 16 16 16 21 21 23 20 13 7 12 22 18 22 16 22 22 22 21 18 16 24 26 28 32 36 35 39 37 36 34 31 25 33 30 32 30 34 31
26 24 24 21 22 24 24 18 15 17 16 17 17 20 25 22 13 4 2 4 18 21 22 27 30 24 20 22 21 18 26 29 21 27 30 39 37 41 38 39 27 42 34 26 30 35 32
25 25 23 21 21 24 24 18 16 17 17 17 16 20 28 24 19 15 12 10 7 8 19 11 24 29 29 33 18 10 22 27 27 30 24 28 28 27 33 35 33 49 43 44 45 43 42
24 25 25 21 22 24 23 18 17 18 16 16 16 22 29 26 22 20 17 17 15 9 21 22 13 22 32 38 34 38 34 29 24 25 38 34 35 34 34 30 41 42 45 48 49 50 51
Wind_Direction
252 255 256 257 258 259 257 254 251 250 250 250 248 247 249 250 251 250 249 248 251 254 253 253 253 253 244 253 251 250 248 245 241 233 224 226 237 223 210 222 240 222 252 215 293 305 217
249 254 257 260 261 261 262 263 263 261 258 254 253 251 247 246 246 248 248 248 248 251 254 255 257 254 250 251 257 253 254 253 248 243 235 230 236 245 243 226 217 224 223 193 280 282 276
269 269 268 268 266 264 262 263 264 265 265 263 260 258 255 252 248 246 244 243 244 247 249 253 256 259 259 259 257 257 254 253 253 246 242 240 235 232 241 248 240 233 223 238 277 269 251
340 295 279 277 277 277 274 272 270 268 266 264 264 262 260 258 256 253 249 245 241 241 242 245 251 256 260 258 258 255 256 256 257 258 256 246 237 237 238 240 256 238 233 262 276 254 269
13 353 339 324 324 305 292 280 276 275 274 272 268 264 261 259 258 258 254 252 248 242 239 240 243 249 253 256 264 256 262 259 258 257 256 254 256 245 242 243 243 254 250 255 249 272 258
340 335 331 328 327 325 317 313 308 300 293 281 275 272 268 263 259 257 258 255 252 247 243 239 240 245 251 253 255 257 261 260 259 256 255 257 255 255 254 252 255 258 258 266 268 258 267
313 312 312 312 314 314 313 309 303 306 295 291 286 280 273 265 263 259 258 256 252 247 243 241 241 240 245 246 251 256 258 259 260 261 260 254 255 257 255 247 252 241 240 241 233 242 259
294 297 298 299 300 300 302 302 301 307 306 293 292 288 269 270 267 262 258 256 254 251 247 242 239 239 242 249 249 251 256 257 260 266 265 258 258 252 248 246 252 251 257 249 256 263 256
287 287 289 290 292 293 296 299 300 298 296 293 291 289 279 263 265 262 259 257 253 252 251 242 242 241 237 243 245 246 251 260 259 263 264 258 246 254 246 253 254 256 256 253 259 254 258
284 287 289 291 289 293 294 294 299 299 296 297 290 288 284 260 265 264 259 258 255 249 251 248 241 241 235 239 241 243 253 256 258 261 258 250 250 239 258 252 256 257 263 262 255 262 263
286 290 294 295 292 293 294 299 303 305 305 299 294 285 279 262 265 267 265 259 253 247 249 256 249 245 239 236 246 241 244 247 253 260 248 243 249 248 252 257 251 252 243 253 257 262 263
292 294 297 299 296 294 296 298 303 305 307 302 298 287 281 264 264 268 262 259 254 244 242 239 237 247 239 241 233 232 233 241 251 248 239 245 230 245 252 251 245 247 246 257 253 260 259
296 295 297 298 298 297 294 298 303 306 307 303 299 291 282 268 266 264 258 254 250 243 250 228 241 244 245 238 234 231 239 241 244 241 243 241 244 244 245 244 247 242 243 251 261 254 263
298 298 296 297 299 299 298 301 307 309 308 305 300 289 272 267 265 262 255 249 250 251 228 234 219 223 230 232 227 234 232 234 240 233 238 246 241 243 240 242 237 247 230 228 238 236 258
297 297 295 296 300 300 301 303 308 311 309 308 300 288 264 264 266 261 251 250 249 238 215 238 229 238 232 233 222 227 227 234 233 236 234 234 244 248 246 247 231 229 230 239 242 242 247
295 298 295 296 301 300 302 306 310 312 309 311 302 279 261 261 262 258 252 247 233 224 236 228 227 223 235 220 238 223 227 232 231 230 230 239 232 230 238 230 231 229 230 241 234 237 238
298 297 295 299 302 299 302 309 313 311 311 311 295 270 259 253 246 251 261 249 230 220 232 231 234 236 219 214 219 213 237 235 231 224 225 230 219 224 223 232 220 231 229 228 230 239 252
296 295 295 296 299 300 303 311 314 311 314 312 290 267 262 251 254 249 264 247 227 222 235 229 227 220 199 208 220 202 213 231 235 208 221 215 215 221 221 239 237 223 243 239 231 232 231
294 295 297 298 300 301 308 313 315 316 318 311 278 272 253 254 245 257 258 240 231 233 230 228 222 227 224 213 220 204 200 242 224 217 218 213 213 221 226 226 229 222 218 223 239 230 227
293 293 297 299 302 305 309 312 315 319 320 303 257 277 254 246 246 260 254 235 234 230 228 226 219 220 225 222 222 207 211 237 221 211 216 209 210 221 220 236 234 249 239 227 227 231 240
295 294 298 300 304 306 309 314 320 321 320 301 265 268 253 234 242 265 246 236 231 222 228 229 217 221 227 226 222 218 225 187 255 227 223 223 225 222 223 227 228 219 237 231 227 229 223
294 296 300 301 305 303 309 316 322 322 319 287 272 257 253 222 243 274 250 237 216 221 229 233 216 222 224 229 224 220 225 225 223 253 230 227 227 220 225 229 236 221 221 212 225 235 241
294 297 294 298 297 304 311 318 321 319 314 285 261 255 226 234 256 279 258 236 221 213 220 222 213 226 225 228 220 220 213 215 221 213 210 219 209 233 237 229 237 225 225 229 230 222 226
297 293 292 293 297 307 309 315 318 310 299 269 256 245 217 239 258 243 253 222 215 209 216 203 222 223 227 229 226 219 219 221 218 219 222 219 215 224 218 244 216 219 214 208 209 215 215
294 291 286 292 299 301 305 311 316 302 287 257 245 244 225 239 257 261 237 209 209 211 220 226 226 225 231 228 222 220 225 224 227 228 226 221 220 219 227 229 249 235 230 230 221 241 243
291 284 281 292 296 297 301 304 305 295 276 262 245 250 223 232 259 259 240 233 213 200 225 222 232 227 225 207 213 223 223 230 230 234 232 228 224 223 226 228 232 244 229 233 239 246 240
287 283 283 289 291 291 294 296 288 288 276 261 243 238 215 223 220 225 217 226 217 210 219 234 237 217 200 185 198 204 221 200 215 221 244 235 234 232 231 235 235 241 254 253 240 240 252
283 285 282 281 285 285 289 289 278 280 277 259 253 225 208 217 225 229 246 249 263 226 198 218 218 222 205 200 202 201 209 210 197 208 200 210 225 233 244 235 240 238 238 243 248 252 254
281 282 279 275 280 281 283 282 269 275 271 262 250 224 218 223 228 230 236 243 248 273 216 234 230 230 222 222 217 212 202 225 234 225 228 236 237 228 221 225 236 241 246 248 251 254 256
Height
5902 5903 5904 5905 5906 5906 5907 5908 5910 5911 5912 5913 5915 5916 5918 5919 5920 5922 5924 5924 5924 5925 5925 5926 5926 5927 5928 5929 5929 5930 5930 5931 5932 5932 5933 5933 5934 5934 5935 5937 5940 5940 5943 5941 5944 5945 5940
5899 5899 5900 5900 5901 5901 5901 5902 5903 5904 5906 5907 5908 5909 5910 5911 5913 5915 5917 5918 5920 5920 5920 5921 5922 5922 5924 5925 5925 5926 5927 5928 5929 5931 5931 5932 5932 5932 5932 5932 5934 5936 5935 5938 5940 5943 5940
5896 5896 5896 5896 5896 5897 5897 5897 5897 5898 5899 5900 5901 5902 5903 5904 5905 5907 5908 5910 5912 5914 5915 5915 5916 5917 5917 5919 5921 5922 5923 5924 5925 5927 5928 5929 5930 5930 5930 5931 5931 5932 5933 5936 5939 5942 5940
5893 5892 5891 5891 5891 5890 5890 5890 5891 5892 5892 5892 5893 5894 5895 5897 5898 5899 5900 5902 5904 5906 5908 5909 5911 5911 5912 5914 5915 5917 5918 5920 5921 5923 5925 5926 5926 5927 5927 5928 5929 5929 5931 5935 5940 5938 5938
5890 5890 5889 5888 5887 5886 5885 5884 5883 5883 5883 5884 5884 5885 5885 5887 5889 5890 5892 5894 5896 5897 5899 5902 5904 5904 5906 5909 5910 5912 5912 5914 5916 5917 5919 5920 5922 5923 5923 5924 5925 5926 5930 5934 5937 5934 5933
5887 5885 5885 5883 5883 5883 5881 5880 5879 5877 5876 5875 5874 5875 5875 5875 5877 5879 5881 5884 5885 5888 5890 5893 5895 5898 5901 5903 5903 5905 5906 5909 5910 5911 5914 5916 5917 5919 5920 5920 5923 5928 5931 5933 5934 5933 5931
5883 5882 5881 5880 5878 5877 5875 5873 5874 5871 5869 5866 5865 5865 5864 5863 5865 5867 5870 5873 5875 5875 5877 5883 5885 5889 5889 5894 5898 5899 5901 5903 5905 5906 5909 5910 5912 5915 5917 5919 5918 5921 5922 5924 5926 5926 5924
5881 5879 5878 5876 5874 5872 5870 5868 5866 5864 5861 5859 5857 5853 5853 5853 5853 5854 5856 5857 5862 5862 5866 5873 5875 5879 5882 5887 5891 5893 5895 5898 5900 5902 5903 5906 5907 5910 5910 5910 5912 5914 5917 5919 5918 5919 5919
5877 5875 5874 5872 5870 5867 5864 5862 5860 5858 5856 5852 5847 5843 5841 5842 5842 5843 5843 5845 5848 5850 5852 5863 5865 5869 5876 5877 5883 5887 5889 5892 5893 5896 5899 5901 5906 5904 5904 5906 5907 5910 5912 5913 5915 5915 5916
5873 5871 5869 5866 5863 5861 5859 5857 5854 5851 5847 5842 5837 5834 5830 5830 5831 5831 5831 5834 5836 5838 5839 5851 5853 5858 5865 5868 5872 5879 5882 5887 5888 5891 5894 5897 5899 5900 5899 5900 5903 5905 5908 5908 5909 5909 5912
5868 5865 5863 5860 5858 5855 5852 5848 5844 5841 5836 5832 5828 5824 5820 5820 5819 5822 5825 5823 5826 5830 5830 5844 5846 5848 5857 5858 5870 5872 5874 5878 5880 5886 5889 5893 5893 5893 5893 5897 5898 5901 5903 5903 5904 5905 5906
5861 5858 5856 5853 5850 5847 5843 5840 5836 5832 5827 5821 5817 5813 5809 5810 5810 5813 5814 5815 5817 5821 5820 5835 5838 5841 5847 5852 5859 5863 5866 5870 5875 5878 5881 5884 5889 5889 5889 5891 5893 5896 5897 5899 5900 5902 5905
5853 5851 5848 5845 5842 5840 5836 5832 5828 5822 5817 5810 5805 5801 5799 5798 5801 5803 5804 5806 5809 5810 5824 5826 5831 5833 5838 5844 5850 5854 5856 5861 5864 5869 5872 5877 5880 5882 5883 5885 5888 5891 5893 5896 5901 5903 5903
5846 5842 5839 5835 5833 5830 5826 5822 5817 5812 5806 5800 5793 5790 5791 5790 5792 5793 5795 5798 5801 5809 5813 5822 5823 5830 5833 5840 5844 5847 5850 5854 5856 5863 5868 5871 5874 5877 5878 5879 5884 5885 5889 5894 5899 5902 5904
5839 5835 5831 5827 5823 5820 5816 5812 5808 5802 5796 5790 5784 5780 5780 5782 5783 5785 5787 5789 5795 5801 5810 5812 5817 5820 5824 5831 5836 5841 5843 5846 5852 5856 5858 5865 5868 5875 5875 5875 5878 5880 5884 5889 5892 5894 5896
5830 5827 5823 5819 5815 5811 5808 5804 5799 5792 5787 5780 5773 5771 5772 5774 5776 5777 5779 5783 5788 5795 5798 5799 5804 5813 5821 5827 5830 5831 5836 5840 5843 5849 5854 5856 5862 5869 5870 5869 5871 5873 5881 5883 5884 5887 5890
5822 5818 5814 5810 5807 5803 5799 5795 5790 5784 5778 5772 5767 5764 5767 5768 5770 5772 5774 5777 5782 5786 5786 5793 5800 5807 5814 5819 5820 5826 5833 5835 5837 5842 5847 5850 5856 5862 5862 5861 5866 5868 5870 5874 5881 5884 5886
5813 5809 5805 5802 5798 5795 5791 5787 5782 5776 5769 5763 5759 5757 5762 5762 5766 5767 5768 5771 5775 5776 5781 5787 5792 5796 5800 5807 5810 5817 5825 5829 5825 5831 5836 5842 5849 5852 5857 5859 5859 5865 5867 5868 5872 5876 5878
5803 5800 5796 5793 5790 5787 5783 5779 5773 5768 5761 5756 5753 5753 5755 5757 5760 5762 5763 5764 5767 5772 5775 5780 5785 5790 5795 5799 5803 5810 5816 5811 5817 5824 5830 5836 5840 5845 5850 5856 5857 5856 5861 5865 5867 5870 5872
5793 5790 5788 5784 5781 5778 5774 5770 5765 5759 5754 5749 5748 5750 5750 5751 5754 5757 5757 5758 5761 5766 5769 5773 5778 5783 5787 5792 5797 5803 5809 5812 5813 5818 5821 5827 5833 5838 5844 5850 5854 5851 5852 5857 5861 5864 5867
5784 5781 5779 5777 5774 5770 5765 5761 5757 5751 5746 5743 5743 5745 5744 5748 5749 5751 5752 5753 5756 5760 5764 5765 5771 5776 5781 5786 5791 5797 5802 5807 5808 5811 5818 5823 5826 5832 5835 5839 5839 5845 5849 5850 5854 5857 5860
5775 5773 5771 5768 5765 5762 5759 5754 5750 5745 5741 5738 5738 5740 5740 5743 5746 5746 5746 5748 5750 5755 5759 5761 5766 5771 5776 5780 5785 5791 5798 5803 5808 5810 5812 5817 5821 5826 5830 5835 5836 5840 5842 5845 5850 5853 5855
5767 5765 5762 5760 5758 5755 5751 5748 5745 5740 5736 5734 5735 5736 5738 5741 5742 5743 5742 5744 5746 5746 5752 5756 5761 5765 5770 5773 5777 5784 5791 5795 5801 5800 5805 5808 5815 5819 5826 5829 5831 5833 5837 5841 5845 5846 5851
5757 5756 5755 5753 5751 5748 5745 5742 5739 5736 5733 5732 5732 5733 5735 5738 5738 5741 5738 5740 5743 5746 5749 5752 5755 5760 5761 5767 5772 5778 5782 5788 5791 5795 5799 5803 5809 5813 5820 5819 5813 5821 5825 5829 5833 5831 5834
5749 5748 5747 5746 5744 5741 5738 5736 5733 5731 5728 5728 5729 5731 5732 5734 5734 5734 5734 5736 5740 5745 5746 5750 5751 5755 5759 5763 5767 5772 5776 5781 5784 5791 5793 5798 5802 5808 5811 5813 5815 5816 5819 5823 5826 5824 5828
5741 5740 5740 5739 5737 5735 5732 5730 5728 5726 5723 5723 5724 5726 5727 5730 5730 5729 5729 5733 5737 5741 5745 5746 5748 5751 5755 5760 5764 5767 5773 5778 5781 5783 5787 5791 5796 5800 5805 5806 5810 5804 5803 5814 5818 5818 5822
5734 5733 5733 5731 5730 5728 5726 5725 5722 5721 5719 5718 5718 5719 5722 5726 5727 5728 5728 5729 5733 5736 5740 5741 5743 5747 5753 5757 5754 5764 5767 5767 5775 5780 5779 5784 5789 5792 5796 5799 5805 5797 5800 5803 5810 5812 5813
5726 5725 5725 5724 5723 5721 5720 5719 5717 5715 5714 5713 5714 5715 5718 5721 5724 5725 5727 5729 5731 5732 5735 5735 5740 5743 5747 5751 5754 5752 5758 5760 5763 5766 5768 5772 5778 5785 5787 5790 5794 5789 5793 5797 5800 5803 5805
5718 5717 5717 5716 5716 5714 5713 5713 5712 5710 5709 5709 5710 5711 5714 5717 5721 5722 5724 5726 5728 5730 5732 5733 5736 5737 5741 5745 5748 5751 5755 5755 5759 5762 5763 5768 5769 5772 5776 5774 5776 5779 5781 5785 5789 5792 5794